Location: Niedergestelen
(46.3129°N, 7.7822°E)
Time: 05:46:56
(UTC+00:00)

Cosmos 1470 Rocket - Pass Details

Date: 01 December 2020
Orbit: 604 x 633 km, 82.5° (Epoch: 18 January)

Event Time Altitude Azimuth Distance (km) Brightness Sun altitude
Rises 17:06:38 0° 351° (N) 2,874 6.9 -13.8°
Reaches altitude 10° 17:08:51 10° 353° (N) 1,963 6.0 -14.1°
Maximum altitude 17:13:12 82° 79° (E) 617 3.4 -14.9°
Drops below altitude 10° 17:17:31 10° 169° (S) 1,948 6.2 -15.6°
Sets 17:19:43 0° 170° (S) 2,848 7.0 -15.9°
